Location: DARK SKY Beskydy - Park tmavé oblohy, www.darkskybeskydy.cz
(49.4926°N, 18.5016°E)
Time: 11:25:45
(UTC+02:00)

Vanguard 1 - Pass Details

Date: 28 February 2024
Orbit: 653 x 3825 km, 34.2° (Epoch: 12 April)

Event Time Altitude Azimuth Distance (km) Brightness Sun altitude
Rises 19:08:49 0° 232° (SW) 5,064 14.4 -17.4°
Reaches altitude 10° 19:11:49 10° 225° (SW) 4,426 13.9 -17.9°
Maximum altitude 19:23:55 43° 160° (SSE) 3,643 12.6 -19.8°
Enters shadow 19:34:31 26° 112° (ESE) 5,181 13.1 -21.5°
Drops below altitude 10° 19:42:55 10° 99° (E) 6,796 - -22.8°
Sets 19:48:58 0° 94° (E) 7,952 - -23.8°
